Lid_Strength_Index
4 4 4 5 5 5 5 5 4 4 4 4 4 4 4 3 3 4 8 6 4 -1 -0 6 8 8 8 9 8 10 13 16 14 13 10 8 8 6 4 6 5 5 5 3 3
4 4 4 5 5 5 5 5 5 4 4 5 4 4 4 3 6 7 3 -2 -3 -3 7 7 8 9 10 10 9 11 15 14 11 11 9 7 7 7 7 7 7 6 4 3 2
4 4 4 4 5 5 5 5 5 5 5 5 5 4 4 3 6 4 -2 -3 -3 -2 6 6 6 8 12 11 11 12 13 11 10 10 9 8 7 6 7 8 6 6 5 4 3
4 4 4 5 4 5 5 5 5 5 5 5 5 4 3 5 10 6 -2 -2 -3 3 6 7 8 12 9 10 11 12 9 10 10 10 9 10 6 7 7 6 4 4 4 4 4
4 4 5 5 5 4 5 5 5 5 5 5 4 3 5 7 7 2 -3 -2 3 6 7 8 10 12 12 11 10 11 10 9 9 10 10 9 10 9 7 5 4 4 4 4 4
5 5 5 5 5 5 5 5 5 5 5 5 4 2 5 9 3 2 2 4 6 7 8 8 8 9 10 11 11 10 10 9 9 9 10 9 9 7 6 5 5 5 5 4 4
5 5 5 5 5 5 5 5 5 5 5 4 3 2 4 6 3 3 4 6 6 6 7 7 7 9 9 9 9 9 11 10 9 11 10 8 9 9 6 5 6 6 6 5 4
5 5 5 5 5 5 5 5 4 3 3 2 2 3 6 2 4 4 5 6 5 5 6 5 6 8 10 9 8 10 12 14 11 10 9 9 12 7 5 6 7 6 6 5 4
4 5 5 6 5 5 5 5 4 4 2 2 4 4 6 1 4 3 4 5 5 5 6 4 7 9 9 11 13 13 15 15 12 10 9 10 11 7 5 6 7 7 6 5 4
4 5 5 5 6 6 6 5 3 4 3 2 2 6 4 5 4 3 4 4 5 6 6 7 9 11 12 13 15 14 15 14 12 9 7 9 10 8 8 6 7 7 7 6 5
4 5 5 6 5 6 7 7 7 7 6 7 7 5 5 3 4 4 4 4 4 6 9 9 11 13 11 11 10 11 12 12 10 8 9 10 9 9 7 8 7 7 6 7 6
5 5 5 5 5 6 8 9 6 8 10 4 3 4 3 4 6 5 4 6 7 9 9 11 12 9 8 9 10 10 11 12 10 8 8 10 11 9 8 7 7 7 7 6 6
5 5 4 4 5 7 8 6 4 6 10 6 5 5 5 5 6 6 5 6 8 10 10 11 9 7 8 10 10 11 12 12 11 9 8 10 11 10 8 7 6 6 6 6 6
5 5 5 4 7 8 8 6 5 5 12 8 6 5 5 6 7 5 4 6 8 9 9 10 8 8 9 9 9 12 9 9 10 13 14 10 14 12 10 9 8 7 8 9 6
5 5 5 4 8 9 5 5 5 5 17 7 7 4 6 7 7 6 4 6 9 9 8 9 9 10 10 9 8 9 8 9 10 12 13 12 14 12 11 10 9 8 9 9 6
4 5 6 7 7 6 5 6 6 10 15 9 7 8 8 8 7 6 5 6 6 8 8 9 6 8 8 7 7 8 9 10 12 13 15 13 13 14 13 11 9 8 7 7 6
4 5 7 7 9 6 8 6 11 14 8 10 10 9 9 9 8 7 8 9 11 12 12 9 9 7 6 9 8 9 13 16 16 16 17 12 13 12 10 8 8 8 8 6 6
5 6 7 7 6 5 7 8 15 10 9 8 9 9 9 9 9 8 9 10 8 9 12 13 13 8 7 9 11 11 12 15 18 18 15 11 15 12 8 7 7 6 6 6 6
6 9 7 6 5 5 7 12 12 10 8 8 8 10 10 8 8 8 9 9 8 8 12 12 11 8 7 8 9 11 14 12 14 15 15 14 12 9 8 8 8 7 6 7 6
9 9 8 5 4 5 8 11 10 7 8 8 9 9 11 10 10 10 10 8 8 8 8 9 12 8 7 8 9 11 10 14 15 17 19 15 14 14 11 9 8 8 7 6 6
9 8 5 4 4 7 11 10 9 7 7 8 9 9 8 9 10 11 10 8 7 7 7 9 11 10 9 10 11 11 12 13 13 14 17 17 14 10 9 9 8 8 6 6 6
9 11 5 4 9 10 10 7 6 8 7 8 8 8 8 8 9 10 10 7 5 7 9 9 11 13 11 8 7 10 12 13 15 15 14 14 14 10 8 8 8 8 6 6 5
12 9 5 5 11 11 8 6 6 7 8 8 8 7 7 9 11 9 8 6 6 7 8 8 12 15 13 11 9 10 9 11 13 14 14 15 14 9 9 9 9 7 7 6 5
11 11 8 7 7 8 8 8 8 5 6 6 7 7 8 9 9 9 8 6 6 6 6 7 11 13 15 12 10 11 10 10 12 15 15 14 12 10 10 9 8 8 7 6 5
10 11 8 10 9 9 9 8 8 8 6 7 8 8 8 10 10 10 8 7 6 5 7 9 12 11 10 9 9 10 10 10 12 12 13 12 12 10 9 10 9 8 8 7 7
12 11 8 8 8 9 9 9 8 8 7 8 9 7 8 10 10 11 9 10 10 8 9 9 12 12 12 9 10 11 9 10 11 10 11 11 12 8 8 7 7 7 6 7 6
9 8 7 8 9 11 11 8 8 7 7 6 7 8 9 8 7 8 8 8 9 9 10 10 11 13 15 11 11 13 10 10 10 9 10 12 11 8 9 8 8 8 7 7 6